Weather in Navi Mumbai

India     19°01′57″N   73°01′46″E
temp.,
°C
wind,
m/s
gust,
m/s
humid.,
%
clouds,
%
prec.,
mm/h
press.,
hPa
HPBL,
m
17 june, thu
thu1723:30+28sw688150 5.2 1004483
02:30+28sw798082 6.4 1003579
05:30+27sw6881100 12.0 1003564
08:30+29sw797685 0.8 1004976
11:30+29sw897661 3.6 1004939
14:30+29sw8972100 4.1 1003943
17:30+29ssw81073100 8.6 10031037
20:30+28ssw6876100 2.6 1004633
18 june, fri
fri1823:30+28sw6877100 6.6 1005626
02:30+27sw687959 5.0 1003487
05:30+27sw697981 10.9 1003512
08:30+28sw68795 5.8 1005685
11:30+29sw7874100 10.8 1005947
14:30+30sw676925 4.6 1004923
17:30+29sw676992 6.4 1004713
20:30+28ssw687562 0.8 1006564
19 june, sat
sat1923:30+28ssw587667 2.2 1007694
02:30+27ssw68795 2.6 1005602
05:30+27sw797811 10.2 1005495
08:30+28sw897649 6.1 10071013
11:30+29sw910738 10.3 10071109
14:30+29sw9117181 1.4 10051186
17:30+29sw8973100 3.6 1005966
20:30+28sw8107616 2.6 1007835
20 june, sun
sun2023:30+28sw8107729 4.0 1007776
02:30+27sw797827 3.1 1006679
05:30+27wsw697834 7.5 1006652
08:30+28wsw787527 3.3 1008972
11:30+29sw897335 6.4 10081012
14:30+29sw897599 2.4 10071003
17:30+29sw7877100 5.3 1006914
20:30+28sw8978100 3.3 1007730
21 june, mon
mon2123:30+28sw897843 6.1 1008693
02:30+27sw81079100 4.1 1006700
05:30+27wsw798041 8.5 1006640
08:30+28wsw797744 4.1 1008900
11:30+29wsw7875100 7.2 1008939
14:30+29wsw7973100 3.3 1007981
17:30+28wsw7977100 6.9 1006705
20:30+27sw5780100 4.9 1007410